Wind_Speed
14 14 15 16 17 17 19 21 22 22 21 20 18 17 16 14 13 12 12 12 12 13 14 14 13 14 14 12 10 10 9 8 9 9 10 10 10 11 10 10 10 9
16 16 16 18 18 19 21 23 23 23 21 20 19 18 16 14 13 12 11 11 11 13 13 13 13 14 14 12 11 11 10 9 9 9 9 9 9 10 10 9 9 9
18 18 18 19 19 20 23 25 25 23 21 20 19 18 16 14 13 12 11 11 10 11 12 12 13 13 13 12 12 12 11 10 10 9 9 9 9 10 10 10 9 10
18 19 19 20 20 21 24 26 26 24 22 21 20 19 17 14 13 12 11 10 9 10 11 11 12 12 12 13 13 13 12 12 11 10 9 10 10 10 10 10 10 10
19 20 20 21 22 22 24 26 27 25 24 22 20 18 16 14 13 12 10 10 9 9 10 11 10 10 11 12 13 13 13 13 12 11 10 10 9 10 10 10 10 11
22 23 21 22 22 22 23 27 28 26 24 23 21 17 15 13 12 11 10 10 9 9 10 9 9 10 11 11 12 12 13 13 13 11 11 11 10 10 10 10 10 11
24 24 23 23 23 22 24 29 29 27 25 23 20 17 15 14 13 11 11 10 9 9 8 8 8 9 10 11 11 12 13 14 14 13 13 12 11 11 10 10 10 11
24 24 23 23 24 24 27 30 30 27 25 23 19 17 16 15 13 12 11 10 10 9 8 8 8 7 9 10 11 11 12 13 14 14 13 13 13 13 11 10 10 10
25 24 24 24 24 26 29 31 29 27 25 23 20 19 18 15 13 12 11 10 9 8 8 7 6 6 8 9 9 11 12 13 12 12 13 14 14 14 12 10 11 10
25 25 25 25 26 28 31 31 29 27 26 24 21 20 18 16 14 12 11 11 10 9 8 6 6 6 6 7 9 11 12 10 9 9 12 15 15 14 12 11 11 11
25 25 25 27 27 30 34 32 29 28 27 24 22 21 18 16 14 13 11 11 10 9 7 6 6 6 6 7 9 10 10 9 9 10 13 15 15 15 13 11 12 12
25 25 26 29 30 32 35 33 29 29 27 25 23 21 18 16 14 12 11 11 10 9 8 7 7 6 7 8 9 10 10 10 11 12 13 14 16 16 14 13 13 13
25 25 27 31 31 34 36 33 30 31 29 25 23 21 19 17 15 13 12 11 10 9 8 6 5 4 5 7 9 10 12 12 12 13 13 15 16 16 15 14 14 13
24 25 27 31 31 34 37 33 30 31 29 26 24 22 20 18 16 15 14 11 9 8 7 5 3 3 3 5 8 11 13 14 14 13 12 13 15 16 16 15 14 14
24 26 28 31 31 33 36 34 31 31 29 27 25 23 21 20 19 18 14 11 9 8 7 6 4 3 3 4 6 10 12 14 14 13 11 12 13 15 15 15 14 13
25 27 29 32 33 35 36 34 33 32 28 27 27 25 24 23 21 19 15 13 11 8 7 7 6 5 4 4 5 8 11 13 14 13 13 13 12 12 14 14 13 13
24 26 29 32 34 37 37 35 35 35 30 28 28 27 26 24 22 19 16 14 11 9 9 8 8 6 5 4 5 7 10 13 14 14 15 14 12 11 13 14 13 13
23 26 30 33 35 37 38 38 40 38 34 30 29 28 26 24 22 20 18 15 13 12 11 10 9 8 6 6 6 7 10 13 14 16 17 16 15 15 16 16 15 15
24 27 30 33 35 35 37 40 41 40 37 33 30 28 26 24 22 21 19 17 15 14 13 11 11 10 9 8 8 9 12 14 15 16 17 18 18 18 17 17 17 16
23 25 28 32 34 34 34 38 39 39 38 35 31 28 26 24 22 21 20 18 17 17 16 14 14 13 12 12 11 12 14 16 17 18 18 18 19 19 18 18 17 15
23 25 27 30 31 31 32 37 40 40 39 37 32 28 26 25 23 23 22 21 19 19 18 17 17 17 17 16 15 15 16 18 19 20 20 20 20 20 19 19 18 16
23 26 28 29 30 30 31 36 40 40 37 35 33 30 29 28 26 25 24 23 23 22 21 20 20 20 20 18 18 17 18 19 20 21 21 21 21 21 20 19 19 18
21 24 27 29 31 32 33 34 36 36 35 36 35 33 32 30 29 28 26 26 25 25 24 24 24 24 24 22 21 19 18 19 20 22 23 23 23 22 21 20 20 19
21 22 24 25 27 31 32 32 32 33 33 34 33 33 33 31 29 28 27 26 26 26 27 26 26 26 26 25 24 23 22 23 24 24 25 25 24 23 23 23 22 23
24 25 25 24 27 33 35 34 33 32 31 31 31 31 31 31 30 29 29 28 27 26 26 25 25 25 25 25 24 25 26 26 26 25 25 27 27 26 26 27 27 27
20 21 22 23 27 32 35 36 35 33 32 32 31 29 29 31 32 31 29 27 25 22 20 20 20 20 20 21 21 22 23 24 23 24 26 29 30 30 31 32 32 32
Wind_Direction
237 229 217 208 204 208 209 209 205 199 198 199 197 200 201 195 191 197 202 204 210 215 215 212 207 207 210 213 213 211 209 210 212 213 213 214 216 220 218 213 211 204
232 226 214 205 206 207 205 206 203 200 199 197 197 198 197 191 189 195 201 202 204 208 212 213 208 208 211 211 213 213 209 209 212 216 214 210 211 213 210 205 203 196
227 224 211 205 208 207 204 203 200 199 200 198 197 195 193 191 188 192 200 201 201 203 207 210 208 210 212 211 213 215 214 213 214 217 215 210 206 203 199 194 192 190
223 222 213 206 208 207 205 204 200 199 200 198 196 194 193 191 187 193 198 197 198 198 201 205 207 209 210 209 213 215 216 216 214 213 212 210 205 197 194 192 186 183
221 220 214 209 208 208 208 206 201 199 200 198 195 193 192 190 190 194 191 189 190 186 195 203 203 206 207 207 212 212 213 214 213 210 210 212 205 193 193 193 183 178
219 218 214 210 209 208 207 206 201 199 199 197 194 192 190 189 191 187 180 183 181 179 195 201 193 199 203 204 207 208 209 210 211 210 208 211 207 192 191 189 182 179
219 218 214 211 210 207 204 202 200 200 198 195 192 189 186 186 183 175 173 177 175 178 192 196 192 196 198 202 205 204 205 205 208 209 205 205 204 196 192 184 180 180
217 218 216 212 210 207 203 201 200 199 196 192 190 187 183 180 175 171 171 171 170 176 184 191 199 197 195 202 204 201 202 203 205 208 205 201 199 198 196 185 181 179
214 216 216 213 210 209 206 202 200 199 196 191 190 190 184 179 178 174 172 169 168 175 180 185 197 199 200 205 199 196 202 204 202 202 202 199 195 195 195 188 182 176
212 213 213 211 210 210 208 204 201 200 196 190 191 193 187 183 180 173 171 173 171 174 177 177 188 201 206 204 198 199 205 203 190 185 192 194 191 191 193 188 179 171
212 212 210 209 209 209 206 203 201 200 196 192 192 192 188 184 179 173 172 174 173 175 173 171 185 200 201 202 205 205 203 193 178 178 188 189 186 187 188 181 171 169
212 213 209 206 206 207 205 202 201 201 197 193 192 191 188 185 182 179 179 179 178 178 175 176 189 194 194 202 207 201 194 188 184 186 190 188 184 182 183 180 173 173
212 214 212 206 201 202 203 202 201 201 199 195 193 191 190 190 190 189 188 186 184 185 185 187 195 194 190 201 206 199 192 190 192 193 191 188 185 182 181 181 179 181
212 213 213 207 199 199 202 202 201 201 200 197 195 195 196 196 196 196 194 191 190 194 194 185 188 202 193 196 206 205 195 191 196 198 192 189 187 186 186 183 183 188
211 212 213 205 197 198 201 201 202 202 201 199 198 199 201 201 203 203 199 197 200 203 195 184 189 208 203 195 207 212 203 195 196 197 194 194 189 188 192 189 188 192
211 211 209 202 197 198 199 200 203 204 204 203 202 203 204 206 209 209 204 207 211 208 201 200 202 206 211 212 210 213 209 202 198 193 194 200 193 186 190 190 187 189
213 208 202 199 198 198 198 202 205 204 206 208 208 209 210 211 215 216 213 217 222 219 214 214 214 211 212 221 219 214 213 210 203 194 191 195 192 187 189 188 184 185
212 207 201 201 202 198 197 203 206 205 207 211 213 214 214 215 217 219 221 226 228 226 223 219 219 217 213 220 228 222 217 215 210 202 196 193 192 193 194 191 190 191
208 204 202 205 204 199 198 203 208 208 209 212 215 216 217 218 219 222 228 232 231 229 228 224 221 223 222 224 229 228 224 222 218 214 211 205 201 202 204 203 203 203
205 201 206 210 206 201 200 204 208 211 211 213 216 218 219 221 223 226 231 235 233 230 230 229 225 224 224 223 227 231 230 228 224 220 219 216 213 211 211 212 213 215
204 204 209 209 203 201 204 205 208 212 213 213 216 220 223 224 225 227 231 235 235 232 230 230 229 226 223 222 225 228 229 230 228 222 219 220 221 221 220 218 216 217
204 208 210 208 205 208 212 212 213 215 215 215 217 221 225 226 226 226 228 232 235 235 233 232 230 228 225 223 224 225 226 228 228 225 225 226 227 229 232 231 227 226
208 210 211 211 212 216 218 216 214 215 217 217 217 220 223 224 224 225 227 230 234 236 237 235 234 234 233 230 226 224 223 226 232 237 236 233 231 231 235 239 239 239
212 217 218 218 216 212 208 206 208 213 217 216 214 215 217 220 221 223 225 228 231 235 238 241 244 246 247 244 238 234 234 238 247 249 242 237 237 236 237 241 243 245
190 199 205 215 220 213 205 202 206 212 214 213 211 209 210 214 219 221 223 226 231 236 242 247 250 252 253 252 247 245 246 249 251 247 237 235 239 241 241 244 245 246
186 183 182 188 196 199 197 198 202 205 207 210 211 210 212 217 221 223 226 230 234 236 239 240 240 241 244 246 245 244 246 247 244 236 231 234 238 242 244 246 248 249
Height
3127 3127 3127 3128 3129 3130 3131 3133 3134 3135 3136 3137 3138 3138 3139 3140 3142 3142 3143 3145 3146 3147 3148 3149 3151 3151 3152 3153 3154 3154 3155 3156 3157 3157 3158 3159 3160 3161 3162 3163 3163 3164
3126 3126 3126 3127 3128 3129 3130 3132 3133 3135 3136 3137 3137 3138 3139 3140 3141 3142 3143 3144 3146 3146 3147 3148 3149 3150 3151 3152 3153 3153 3154 3155 3155 3156 3157 3158 3159 3159 3160 3161 3162 3163
3124 3125 3125 3126 3127 3128 3129 3130 3132 3134 3135 3136 3137 3137 3138 3139 3141 3142 3143 3144 3145 3145 3146 3147 3148 3149 3150 3151 3152 3152 3153 3154 3154 3155 3156 3157 3158 3158 3159 3160 3161 3162
3123 3123 3124 3125 3126 3127 3128 3130 3131 3133 3134 3135 3136 3137 3138 3139 3140 3141 3142 3143 3144 3145 3145 3146 3147 3148 3149 3150 3151 3151 3152 3152 3153 3154 3155 3156 3157 3157 3158 3159 3160 3161
3121 3121 3122 3123 3124 3126 3127 3129 3131 3132 3134 3135 3136 3137 3138 3139 3140 3141 3142 3143 3143 3144 3145 3145 3146 3147 3148 3149 3149 3150 3151 3151 3152 3153 3154 3154 3155 3156 3157 3158 3159 3160
3119 3119 3121 3122 3123 3124 3126 3128 3130 3132 3133 3135 3136 3137 3138 3139 3140 3141 3142 3142 3143 3144 3144 3145 3146 3146 3147 3148 3148 3149 3150 3150 3151 3152 3153 3153 3154 3156 3156 3157 3158 3159
3117 3118 3119 3120 3121 3123 3125 3127 3129 3131 3133 3135 3136 3137 3138 3139 3140 3140 3141 3142 3142 3143 3144 3144 3145 3146 3146 3147 3147 3148 3149 3149 3150 3151 3152 3152 3153 3155 3155 3156 3158 3158
3116 3117 3118 3119 3120 3122 3124 3126 3128 3130 3132 3134 3136 3137 3137 3138 3139 3140 3140 3141 3142 3142 3143 3143 3144 3145 3146 3146 3147 3147 3148 3148 3149 3149 3150 3151 3152 3153 3154 3155 3157 3158
3113 3115 3116 3118 3119 3121 3122 3124 3127 3129 3132 3134 3135 3136 3137 3137 3138 3139 3140 3140 3141 3142 3142 3143 3143 3144 3145 3145 3146 3147 3147 3147 3148 3148 3149 3150 3151 3152 3153 3154 3156 3157
3111 3112 3114 3116 3117 3119 3121 3123 3126 3129 3131 3133 3134 3135 3136 3136 3137 3138 3139 3140 3140 3141 3141 3142 3142 3143 3144 3145 3145 3146 3146 3146 3147 3148 3148 3149 3150 3151 3152 3153 3155 3156
3108 3110 3112 3114 3115 3117 3118 3121 3125 3128 3130 3132 3133 3134 3134 3136 3137 3137 3138 3139 3140 3140 3141 3141 3142 3142 3143 3144 3144 3145 3145 3146 3147 3147 3147 3148 3149 3151 3152 3153 3154 3155
3104 3107 3109 3110 3112 3114 3117 3120 3124 3127 3129 3130 3131 3132 3134 3135 3136 3137 3137 3138 3139 3139 3140 3140 3141 3141 3142 3143 3144 3144 3145 3145 3146 3146 3146 3147 3149 3150 3151 3152 3154 3155
3101 3104 3106 3107 3109 3111 3115 3119 3122 3125 3127 3129 3130 3131 3133 3134 3135 3136 3136 3137 3138 3139 3139 3140 3140 3141 3142 3142 3143 3144 3144 3145 3145 3145 3146 3146 3148 3149 3150 3152 3153 3154
3098 3101 3102 3105 3107 3109 3113 3117 3120 3123 3125 3127 3128 3130 3132 3133 3133 3134 3135 3136 3137 3138 3138 3139 3140 3141 3141 3142 3143 3143 3144 3144 3144 3145 3145 3146 3147 3148 3149 3150 3152 3153
3096 3098 3100 3103 3105 3107 3112 3115 3118 3121 3123 3125 3127 3128 3130 3130 3130 3132 3134 3135 3136 3137 3138 3138 3139 3140 3140 3141 3142 3143 3143 3144 3144 3144 3145 3145 3146 3147 3148 3149 3151 3152
3093 3096 3099 3101 3103 3105 3110 3114 3116 3118 3121 3123 3125 3125 3126 3127 3128 3130 3132 3134 3135 3136 3137 3138 3138 3139 3140 3140 3141 3142 3143 3143 3143 3144 3144 3144 3145 3146 3147 3148 3150 3151
3092 3094 3097 3100 3101 3104 3109 3112 3113 3116 3118 3120 3121 3122 3124 3126 3128 3129 3131 3132 3134 3135 3136 3137 3137 3138 3139 3139 3140 3141 3142 3143 3143 3143 3143 3144 3144 3145 3146 3147 3149 3150
3091 3093 3096 3098 3099 3102 3106 3108 3110 3113 3115 3117 3119 3121 3123 3125 3126 3128 3130 3131 3132 3133 3134 3135 3136 3137 3138 3139 3139 3140 3141 3142 3142 3142 3142 3143 3143 3143 3144 3146 3147 3148
3089 3092 3094 3096 3098 3101 3103 3105 3108 3111 3113 3115 3117 3120 3122 3123 3125 3127 3128 3129 3131 3132 3133 3134 3135 3136 3137 3137 3138 3139 3140 3140 3140 3141 3141 3141 3141 3142 3143 3144 3145 3146
3088 3091 3093 3094 3097 3100 3102 3103 3106 3109 3111 3113 3116 3118 3120 3122 3123 3125 3126 3127 3129 3130 3131 3133 3134 3134 3135 3136 3137 3138 3138 3138 3139 3139 3140 3140 3140 3141 3142 3143 3144 3145
3088 3090 3092 3093 3096 3098 3100 3102 3105 3107 3109 3112 3114 3116 3118 3119 3121 3122 3123 3125 3126 3127 3129 3130 3131 3132 3133 3134 3135 3135 3136 3137 3137 3138 3138 3139 3139 3140 3140 3141 3142 3144
3087 3089 3091 3093 3095 3097 3099 3100 3103 3105 3108 3110 3112 3114 3115 3117 3118 3119 3121 3122 3123 3125 3126 3128 3129 3130 3131 3131 3132 3133 3133 3134 3135 3136 3137 3137 3138 3139 3139 3140 3141 3142
3087 3089 3090 3092 3094 3096 3097 3098 3100 3103 3105 3107 3108 3110 3112 3113 3115 3117 3118 3120 3121 3122 3123 3125 3126 3127 3128 3129 3129 3130 3131 3132 3133 3134 3135 3135 3136 3137 3138 3139 3140 3141
3086 3088 3089 3090 3091 3092 3094 3096 3098 3100 3103 3104 3105 3106 3109 3111 3113 3114 3116 3117 3118 3119 3120 3121 3123 3124 3125 3126 3127 3127 3128 3129 3130 3131 3132 3133 3134 3135 3136 3137 3138 3139
3085 3086 3087 3088 3089 3090 3091 3094 3096 3098 3100 3101 3102 3103 3105 3108 3110 3111 3112 3114 3115 3116 3117 3118 3119 3120 3121 3122 3123 3124 3125 3126 3126 3127 3128 3130 3131 3131 3132 3133 3134 3135
3085 3085 3085 3086 3087 3088 3090 3091 3092 3093 3095 3097 3098 3100 3102 3104 3106 3108 3109 3111 3112 3114 3115 3115 3115 3116 3117 3118 3119 3120 3121 3122 3123 3124 3125 3126 3127 3128 3129 3130 3131 3131